This demonstration page uses our WeatherBlox Daily Observations layout. Learn more.

Left ArrowRight Arrow

Hourly Observations for May 28, 2022

Temp ( °F °C ) Dew Point ( °F °C ) Humidity (%) Winds ( mph kmh ) Pressure ( in mb ) Visibility ( mi km ) Precip ( " mm )
12:54 am 00:54 Clear 68 20 57 13.9 68 68 S 12 19 29.77 1008 10 16 0.00 0.00
1:54 am 01:54 Clear 66 18.9 57 13.9 73 73 SE 9 15 29.77 1008 10 16 0.00 0.00
2:54 am 02:54 Clear 65 18.3 57 13.9 76 76 SSE 12 19 29.75 1008 10 16 0.00 0.00
3:54 am 03:54 Clear 66 18.9 57 13.9 73 73 SSE 16 26 29.69 1005 10 16 0.00 0.00
4:54 am 04:54 Clear 64 17.8 57 13.9 78 78 S 13 20 29.70 1006 10 16 0.00 0.00
5:54 am 05:54 Clear 65 18.3 56 13.3 73 73 S 12 19 29.69 1006 10 16 0.00 0.00
6:54 am 06:54 Sunny 65 18.3 57 13.9 76 76 S 13 20 29.68 1005 10 16 0.00 0.00
7:54 am 07:54 Sunny 68 20 58 14.4 70 70 S 13 20 29.66 1004 10 16 0.00 0.00
8:54 am 08:54 Sunny 73 22.8 59 15 62 62 SSW 9 15 29.67 1005 10 16 0.00 0.00
9:54 am 09:54 Sunny 78 25.6 60 15.6 54 54 SSW 13 20 29.68 1005 10 16 0.00 0.00
10:54 am 10:54 Sunny 83 28.3 61 16.1 48 48 SSW 17 28 29.64 1004 10 16 0.00 0.00
11:54 am 11:54 Sunny 85 29.4 61 16.1 45 45 SSW 18 30 29.62 1003 10 16 0.00 0.00
12:54 pm 12:54 Sunny 85 29.4 63 17.2 48 48 S 15 24 29.60 1002 10 16 0.00 0.00
1:54 pm 13:54 Sunny 85 29.4 64 17.8 50 50 S 13 20 29.58 1002 10 16 0.00 0.00
2:54 pm 14:54 Sunny 86 30 64 17.8 48 48 SSW 14 22 29.56 1001 10 16 0.00 0.00
3:54 pm 15:54 Sunny 86 30 64 17.8 48 48 S 15 24 29.54 1000 10 16 0.00 0.00
4:54 pm 16:54 Sunny 85 29.4 63 17.2 48 48 S 18 30 29.52 1000 10 16 0.00 0.00
5:54 pm 17:54 Sunny 84 28.9 64 17.8 51 51 S 21 33 29.49 999 10 16 0.00 0.00
6:54 pm 18:54 Sunny 83 28.3 64 17.8 53 53 S 17 28 29.49 999 10 16 0.00 0.00
7:54 pm 19:54 Sunny 81 27.2 64 17.8 57 57 S 15 24 29.49 999 10 16 0.00 0.00
8:54 pm 20:54 Clear 79 26.1 64 17.8 60 60 SSE 12 19 29.48 998 10 16 0.00 0.00
9:54 pm 21:54 Clear 78 25.6 65 18.3 64 64 SSE 14 22 29.47 998 10 16 0.00 0.00
11:54 pm 23:54 Clear 76 24.4 63 17.2 64 64 SSE 18 30 29.44 997 10 16 0.00 0.00

Powered by AerisWeather